Davenport, ND (58021)

5:26 AM CST on February 07, 2016 (GMT -0600)
West Fargo Official | | Change Station
CLOSE
Current Station
Personal Weather Station
Location: West Fargo, ND
Elevation: 900 ft
Nearby Weather Stations
Active Advisory: Blizzard Warning

Elev 900 ft 46.82 °N, 96.92 °W | Updated 6 minutes ago

Mostly Cloudy
Mostly Cloudy
36.9 °F
Feels Like 27 °F
N
19.7
Wind Variable Wind from WNW

Today
High -- | Low -- °F
--% Chance of Precip.
Yesterday
High -- | Low -- °F
Precip. -- in
Pressure 29.60 in
Visibility 10.0 miles
Clouds Mostly Cloudy 3800 ft
Overcast 5000 ft
Windchill 27 °F
Dew Point 31 °F
Humidity 78%
Rainfall 0.22 in
Snow Depth Not available.
7:45 AM 5:40 PM
Waning Crescent, 2% visible
METAR KFAR 071053Z 29019G28KT 10SM BKN038 OVC050 03/M02 A2957 RMK AO2 PK WND 28030/1018 SLP022 T00281022
Pressure 29.60 in
Visibility 10.0 miles
Clouds Mostly Cloudy 3800 ft
Overcast 5000 ft
Windchill 27 °F
Dew Point 31 °F
Humidity 78%
Rainfall 0.22 in
Snow Depth Not available.
7:45 AM 5:40 PM
Waning Crescent, 2% visible
METAR KFAR 071053Z 29019G28KT 10SM BKN038 OVC050 03/M02 A2957 RMK AO2 PK WND 28030/1018 SLP022 T00281022

10-Day Weather Forecast

Almanac

Astronomy

Feb. 07, 2016 Rise Set
Actual Time
Civil Twilight
Nautical Twilight
Astronomical Twilight
Moon
Length of Visible Light
Length of Day
Tomorrow will be .
, % of the Moon is Illuminated

Today's Extremes

State Highs State Lows

Community

WunderPhotos

Upload Photos

1,891,170 photos uploaded!

WunderBlog® & News

Nearby

Air Quality

  Air Quality AQ Index Pollutant
Not available.

Snow Depth

Station Depth Elevation

Earthquake Activity

City Distance Mag. Time & Date
Minimum magnitude displayed is 2.5.

Coastal Water Temperatures

Place Temperature

Stations

Nearby Weather Stations

Station Location Temp. Windchill Dew Point Humidity Wind Precip. Elev Updated Type
                   

Watches & Warnings

Blizzard Warning
Issued: 4:22 AM CST Feb. 7, 2016 – National Weather Service

... Blizzard Warning remains in effect from 9 am this morning to
6 am CST Monday...

* timing... expect blizzard conditions to develop around 9 am
Sunday and then diminish around 6 am Monday.

* Winds / visibilities... winds gusting as high as 50 mph will
cause whiteout conditions in blowing snow. Significant drifting
of the snow is likely... especially in open areas.

* Snow accumulations... up to 1 to 3 inches.

* Impacts... travel will be very difficult.

Precautionary/preparedness actions...

A Blizzard Warning means severe winter weather conditions are
expected or occurring. Falling and blowing snow with strong winds
and poor visibilities are likely. This will lead to whiteout
conditions... making travel extremely dangerous. Do not travel. If
you must travel... have a winter survival kit with you. If you get
stranded... stay with your vehicle. The latest Road conditions for
the state you are calling from can be obtained by calling 5 1 1.